RH
32 37 38 47 66 80 78 80 91 90 92 96 96 97 97 95 77 60 56 48 51 54 50 57 48 36 35 35 43 36 35 33
30 41 42 49 60 80 83 87 89 89 93 95 97 96 96 94 86 58 61 51 50 58 52 61 58 44 42 46 40 41 35 34
33 42 47 52 60 76 86 82 89 84 85 82 81 89 92 88 82 76 57 56 48 52 54 54 58 46 50 53 52 43 35 34
34 40 48 54 58 71 86 84 83 80 82 80 84 83 88 90 82 74 68 63 50 52 56 54 57 50 51 58 56 53 44 42
29 37 44 52 53 60 76 84 79 77 83 87 87 86 83 75 73 65 48 60 60 55 48 51 54 49 52 59 52 56 53 50
27 33 38 42 46 60 65 85 83 79 77 83 86 78 71 69 73 71 60 64 78 62 50 54 55 52 56 57 62 65 57 56
25 29 34 39 43 52 67 76 86 85 80 81 83 83 81 77 76 79 61 61 67 69 50 56 61 64 66 62 67 66 66 60
25 29 33 37 44 49 58 66 75 85 86 83 80 73 80 74 71 70 71 74 74 69 63 61 62 67 70 73 76 74 72 72
24 27 33 35 43 47 50 55 58 76 83 82 74 69 69 62 67 61 62 68 69 71 63 60 62 63 64 66 67 68 72 73
22 24 30 35 40 47 49 47 48 57 78 81 79 75 71 63 62 60 58 59 53 63 66 65 63 63 64 65 65 66 65 68
18 22 26 32 36 40 49 44 42 46 55 70 74 74 71 63 61 60 60 58 56 57 63 62 62 62 62 63 63 62 63 64
16 18 21 28 33 37 46 47 41 41 49 58 66 68 71 68 66 61 58 58 55 52 51 55 55 55 57 59 60 60 61 61
15 18 23 27 32 35 41 47 44 41 42 51 60 63 63 67 67 63 63 60 56 53 50 49 50 51 53 56 59 55 60 62
14 16 23 28 31 34 38 45 46 42 40 46 56 59 60 62 63 62 60 60 59 56 52 54 52 54 54 55 56 57 59 59
14 14 15 23 29 32 35 38 45 44 40 44 51 57 57 58 59 60 61 59 59 58 57 55 56 54 52 52 51 54 56 60
20 19 17 16 21 29 31 34 38 43 42 42 47 55 55 55 58 59 59 61 57 55 58 58 58 56 52 56 53 57 64 69
28 28 24 21 19 18 26 32 36 39 44 45 43 49 52 56 56 59 61 61 58 58 58 59 61 52 67 78 71 62 66 71
35 34 33 30 26 23 22 25 32 36 41 44 43 46 50 54 54 53 56 60 59 59 60 60 61 59 80 90 92 65 69 74
36 35 36 34 31 27 26 19 24 31 36 40 42 45 47 49 52 53 57 58 61 62 61 61 62 60 87 97 100 81 80 88
Wind_Speed
12 9 8 10 12 13 12 10 11 11 8 5 6 9 8 6 6 8 11 10 12 7 4 4 5 8 9 9 9 9 9 8
12 12 10 11 12 12 11 12 12 9 9 9 8 9 7 6 3 13 11 11 11 7 6 4 6 7 8 8 9 9 8 8
13 14 12 12 13 14 13 14 13 11 9 9 9 8 5 6 3 3 11 8 11 9 8 8 10 8 9 10 9 9 8 8
16 16 15 13 15 15 14 15 15 13 12 10 9 9 7 4 6 6 8 9 11 10 9 11 11 8 9 10 10 11 9 9
16 17 17 17 15 15 16 14 16 15 15 11 15 11 13 11 12 9 12 11 10 10 15 12 12 9 9 10 10 9 9 9
17 19 18 17 16 16 16 16 15 15 18 14 11 13 12 11 9 12 15 10 10 14 17 14 11 10 10 10 11 12 9 8
16 17 18 16 16 17 16 19 16 15 15 17 17 15 13 12 13 11 12 11 12 19 16 12 12 11 10 10 11 12 11 10
14 18 18 18 19 19 18 18 20 17 17 17 19 20 18 19 18 15 16 9 8 14 15 13 11 12 11 10 11 13 12 9
13 18 18 19 20 21 21 22 20 19 19 19 19 22 13 15 17 14 14 13 12 13 14 15 16 15 14 13 11 12 12 10
11 15 18 19 20 21 21 21 21 22 20 17 17 16 17 17 18 18 16 17 15 17 17 17 17 16 15 14 10 12 12 11
12 12 16 18 19 19 20 20 21 22 22 18 17 18 18 18 17 18 18 17 18 18 19 19 17 16 16 15 12 13 13 11
7 7 11 17 18 19 20 20 21 20 21 20 21 19 19 19 18 19 19 19 21 21 20 20 20 19 18 17 17 16 17 16
6 3 7 12 17 18 19 20 20 20 19 19 20 20 21 20 21 21 20 19 18 19 19 18 19 19 19 19 19 17 18 19
9 1 5 10 14 17 19 20 21 20 19 19 19 19 19 22 23 22 20 20 20 19 19 20 21 19 19 20 20 20 20 19
12 12 5 9 12 16 18 20 19 19 20 20 20 21 22 21 19 20 20 20 20 20 20 21 20 20 21 21 20 20 19 17
16 18 14 13 11 14 17 19 19 20 21 22 23 21 20 20 19 20 19 19 19 20 20 20 20 19 17 20 19 20 17 16
17 18 20 17 18 11 15 17 18 19 20 21 20 18 21 20 20 20 19 19 19 19 20 19 20 15 17 17 17 15 15 15
18 17 16 17 18 15 12 14 16 18 19 20 20 19 20 20 20 20 21 20 18 20 19 19 19 18 15 16 17 15 14 14
18 16 17 17 19 19 17 14 16 18 20 19 19 19 19 18 19 21 19 17 19 17 17 18 16 14 12 16 17 14 16 9
Wind_Direction
190 190 181 172 166 169 166 159 155 149 137 123 114 107 114 134 160 158 154 163 181 154 143 135 181 173 172 178 186 190 185 192
169 171 185 175 177 169 170 162 157 151 146 149 143 147 146 154 230 163 166 165 175 152 145 141 223 181 184 180 189 188 190 189
178 173 185 191 182 166 167 167 161 168 159 166 162 151 154 164 174 182 169 179 183 176 169 180 218 192 192 183 192 186 194 185
185 183 181 194 184 175 170 172 173 171 172 155 155 155 158 164 197 202 191 187 192 191 209 183 204 215 187 188 198 202 195 186
189 187 189 186 195 173 172 176 180 178 166 165 166 165 172 187 187 195 204 202 206 195 210 210 196 212 203 194 200 209 225 192
196 187 189 186 183 172 179 170 177 179 181 175 172 182 186 180 186 194 213 206 200 224 220 203 208 208 217 208 204 207 212 232
197 186 185 185 179 170 177 176 179 179 185 187 187 179 182 180 185 195 216 205 200 213 218 203 209 213 217 214 218 212 224 220
194 187 187 183 181 180 176 186 184 183 186 188 193 195 188 193 195 196 204 206 206 209 216 208 203 212 216 217 219 220 221 224
200 195 191 190 186 187 183 185 191 182 190 193 196 199 197 202 198 202 206 207 206 209 208 207 205 208 213 212 213 222 221 220
205 200 195 196 192 191 192 186 191 189 188 195 198 202 204 203 207 206 205 209 210 210 212 209 208 211 209 213 215 221 223 214
193 211 204 199 196 193 193 198 193 190 192 194 200 202 207 209 215 210 212 213 214 210 209 211 211 213 215 217 221 224 229 225
309 229 215 201 202 198 194 201 201 198 191 191 198 205 205 210 214 218 216 211 213 217 213 213 217 219 221 223 226 230 232 233
12 311 229 204 204 205 199 202 207 205 199 195 198 198 202 207 214 216 215 217 221 217 223 223 223 227 228 229 231 232 234 238
329 219 216 213 211 213 212 206 209 206 206 201 201 204 207 208 210 213 214 215 218 221 224 222 225 227 228 230 233 236 239 241
326 322 254 217 216 216 218 216 209 212 207 208 207 207 209 214 214 213 213 216 217 219 222 226 228 229 229 231 234 237 240 241
340 331 330 324 219 227 221 222 211 210 214 211 214 209 211 214 216 215 216 217 218 217 219 223 226 228 230 229 228 230 228 233
342 335 332 327 317 259 229 229 222 210 217 221 217 213 209 213 214 213 215 218 219 220 220 222 224 226 221 210 226 227 226 228
334 328 324 318 311 314 270 252 225 222 217 223 221 215 213 215 211 212 214 215 214 221 223 221 225 229 204 195 202 226 231 225
328 331 332 325 316 310 299 276 255 228 224 222 221 217 218 212 212 216 216 211 213 214 219 221 226 228 200 193 198 217 227 234